Location: Colossi of Memnon
(25.7167°N, 32.6167°E)
Time: 06:34:48
(UTC+00:00)

Cosmos 2360 Rocket - Pass Details

Date: 05 March 2021
Orbit: 832 x 846 km, 71.0° (Epoch: 17 April)

Event Time Altitude Azimuth Distance (km) Brightness Sun altitude
Rises 03:19:44 0° 332° (NNW) 3,404 5.1 -11.9°
Reaches altitude 10° 03:22:16 10° 327° (NNW) 2,466 4.3 -11.3°
Maximum altitude 03:27:38 45° 256° (WSW) 1,131 2.5 -10.1°
Drops below altitude 10° 03:32:58 10° 184° (S) 2,452 4.6 -8.9°
Sets 03:35:30 0° 178° (S) 3,383 5.4 -8.3°
